WetterOnline ( https://www.wetteronline.de )

Wetter aktuell Flesland

Aktuelles Wetter: Bergen/Flesland (50m)

6-stündlich | Neueste Meldungen
Ortszeit Temperatur Wetter
Do, 22.02. 19:00 6.0° C leichter Regen
Do, 22.02. 13:00 7.2° C Nebel
Do, 22.02. 7:00 4.1° C bedeckt
Do, 22.02. 1:00 5.3° C Regen
Mi, 21.02. 19:00 7.5° C Nebel
Mi, 21.02. 13:00 5.5° C bedeckt
Mi, 21.02. 7:00 4.9° C leichte Schauer
Mi, 21.02. 1:00 5.4° C leichte Schauer
Ortszeit Temperatur Wetter
Fr, 23.02. 0:00 2.1° C Regen
Do, 22.02. 23:00 3.8° C Regen
Do, 22.02. 22:00 4.0° C Regen
Do, 22.02. 21:00 4.5° C leichter Regen
Do, 22.02. 20:00 5.0° C Regen
Do, 22.02. 19:00 6.0° C leichter Regen
Do, 22.02. 18:00 6.3° C leichter Regen
Ortszeit Relative Feuchte Sichtweite
Do, 22.02. 19:00 89% 30 km
Do, 22.02. 13:00 59% 60 km
Do, 22.02. 7:00 100% 15 km
Do, 22.02. 1:00 100% 4.5 km
Mi, 21.02. 19:00 56% >70 km
Mi, 21.02. 13:00 99% 60 km
Mi, 21.02. 7:00 100% 3.9 km
Mi, 21.02. 1:00 100% 2.6 km
Ortszeit Relative Feuchte Sichtweite
Fr, 23.02. 0:00 100% 10 km
Do, 22.02. 23:00 100% 10 km
Do, 22.02. 22:00 100% 12 km
Do, 22.02. 21:00 100% 16 km
Do, 22.02. 20:00 100% 8 km
Do, 22.02. 19:00 89% 30 km
Do, 22.02. 18:00 86% 20 km
Ortszeit Niederschlagsmenge Niederschlagsart
Do, 22.02. 19:00 2 l/m2 in 12 Std. -
Do, 22.02. 13:00 0.0 l/m2 in 6 Std. -
Do, 22.02. 7:00 9 l/m2 in 12 Std. -
Do, 22.02. 1:00 6 l/m2 in 6 Std. -
Mi, 21.02. 19:00 0.4 l/m2 in 12 Std. -
Mi, 21.02. 13:00 0.4 l/m2 in 6 Std. -
Mi, 21.02. 7:00 2 l/m2 in 12 Std. -
Mi, 21.02. 1:00 0.7 l/m2 in 6 Std. -
Ortszeit Niederschlagsmenge Niederschlagsart
Fr, 23.02. 0:00 4.0 l/m2 in 1 Std. -
Do, 22.02. 23:00 3.1 l/m2 in 1 Std. -
Do, 22.02. 22:00 2.2 l/m2 in 1 Std. -
Do, 22.02. 21:00 1.4 l/m2 in 1 Std. -
Do, 22.02. 20:00 1.3 l/m2 in 1 Std. -
Do, 22.02. 19:00 0.5 l/m2 in 1 Std. -
Do, 22.02. 18:00 0.7 l/m2 in 1 Std. -
Ortszeit Stärke Spitze Richtung
km/h Bft. km/h Grad Sektor
Do, 22.02. 19:00 19 3 61 170° S
Do, 22.02. 13:00 28 4 44 150° SO
Do, 22.02. 7:00 18 3 36 150° SO
Do, 22.02. 1:00 29 5 68 160° S
Mi, 21.02. 19:00 32 5 47 150° SO
Mi, 21.02. 13:00 22 4 36 150° SO
Mi, 21.02. 7:00 13 3 19 170° S
Mi, 21.02. 1:00 6 1 26 170° S
Ortszeit Stärke Spitze Richtung
km/h Bft. km/h Grad Sektor
Fr, 23.02. 0:00 14 3 29 200° S
Do, 22.02. 23:00 22 4 29 180° S
Do, 22.02. 22:00 19 3 35 180° S
Do, 22.02. 21:00 24 4 31 190° S
Do, 22.02. 20:00 18 3 32 190° S
Do, 22.02. 19:00 19 3 37 170° S
Do, 22.02. 18:00 25 4 32 170° S
Ortszeit Untergrenze Bedeckung Gattung
total tief tief mittel hoch
Do, 22.02. 19:00 - 8/8 - - - -
Do, 22.02. 13:00 - 8/8 - - - -
Do, 22.02. 7:00 - 8/8 - - - -
Do, 22.02. 1:00 - 8/8 - - - -
Mi, 21.02. 19:00 - 8/8 - - - -
Mi, 21.02. 13:00 - 8/8 - - - -
Mi, 21.02. 7:00 - 8/8 - - - -
Mi, 21.02. 1:00 - 8/8 - - - -
Ortszeit Bedeckungsgrad in Achtel und Wolkenuntergrenze
Fr, 23.02. 0:00 8
Do, 22.02. 23:00 8
Do, 22.02. 22:00 8
Do, 22.02. 21:00 8
Do, 22.02. 20:00 8
Do, 22.02. 19:00 8
Do, 22.02. 18:00 8
Ortszeit Luftdruck NN (hPa) Tendenz (hPa in 3 Std.)
Do, 22.02. 19:00 975 - 1,9
Do, 22.02. 13:00 979 - 2,5
Do, 22.02. 7:00 985 - 0,6
Do, 22.02. 1:00 984 - 1,2
Mi, 21.02. 19:00 990 - 5,5
Mi, 21.02. 13:00 1002 - 2,7
Mi, 21.02. 7:00 1005 + 0,2
Mi, 21.02. 1:00 1005 0,0
Ortszeit Luftdruck NN (hPa) Tendenz (hPa in 3 Std.)
Fr, 23.02. 0:00 974 - 1,0
Do, 22.02. 23:00 974 - 0,6
Do, 22.02. 22:00 975 - 0,2
Do, 22.02. 21:00 975 - 0,4
Do, 22.02. 20:00 975 - 0,5
Do, 22.02. 19:00 975 - 1,9
Do, 22.02. 18:00 975 - 2,3
Ortszeit Schneehöhe (cm)
Do, 22.02. 19:00 -
Do, 22.02. 13:00 -
Do, 22.02. 7:00 -
Do, 22.02. 1:00 -
Mi, 21.02. 19:00 -
Mi, 21.02. 13:00 -
Mi, 21.02. 7:00 -
Mi, 21.02. 1:00 -
Ortszeit Schneehöhe (cm)
Fr, 23.02. 0:00 -
Do, 22.02. 23:00 -
Do, 22.02. 22:00 -
Do, 22.02. 21:00 -
Do, 22.02. 20:00 -
Do, 22.02. 19:00 -
Do, 22.02. 18:00 -
Link zu dieser Seite / Seite empfehlen

Das Wetter in ...